Regional Weather Roundup
Issued by NWS

Home | Current Version | Previous Version | Graphics & Text | Print | Product List | Glossary On
Versions: 1 2 3 4 5 6 7 8 9 10 11 12 13 14 15 16 17 18 19 20 21 22 23 24 25 26 27 28 29 30 31 32 33 34 35 36 37 38 39 40 41 42 43 44 45 46 47 48 49 50
000
ASUS43 KTOP 102008
RWRKS

WEATHER ROUNDUP FOR KANSAS
NATIONAL WEATHER SERVICE GOODLAND KS
200 PM CST SUN DEC 10 2017

NOTE:  "FAIR" INDICATES FEW OR NO CLOUDS BELOW 12,000 FEET WITH NO
SIGNIFICANT WEATHER AND/OR OBSTRUCTIONS TO VISIBILITY.

KSZ001>006-013>018-027>032-041>047-102100-
NORTHWEST KANSAS

CITY           SKY/WX    TMP DP  RH WIND       PRES   REMARKS
GOODLAND       SUNNY     63   1   8 NW12      30.31F
HAYS           SUNNY     66  12  12 NW16      30.24F
HILL CITY      SUNNY     66  11  11 NW10      30.25F
RUSSELL        SUNNY     67  11  11 NW17      30.21F
$$

KSZ061>065-074>080-084>089-102100-
SOUTHWEST KANSAS

CITY           SKY/WX    TMP DP  RH WIND       PRES   REMARKS
DODGE CITY     SUNNY     66  10  11 N8        30.30F
ELKHART        SUNNY     66  17  15 NW8       30.36F
GARDEN CITY    SUNNY     64   1   8 NW10      30.32F
GREAT BEND     SUNNY     66  13  12 NW16      30.25F
LIBERAL        SUNNY     65   5   9 NW13      30.34F
PRATT          SUNNY     66   8  10 NW15G21   30.27S
$$

KSZ066>073-081>083-090>101-102100-
SOUTHEAST KANSAS

CITY           SKY/WX    TMP DP  RH WIND       PRES   REMARKS
CHANUTE        SUNNY     61  20  20 W15       30.17F
COFFEYVILLE    SUNNY     63  20  19 NW12      30.18F
HUTCHINSON     SUNNY     67  16  14 NW14      30.21F
MEDICINE LODGE   N/A     68  14  12 N14G25    30.24F
NEWTON         SUNNY     63  17  17 NW17      30.20F
PARSONS        SUNNY     63  19  18 W12       30.18F
WICHITA INTL   MOSUNNY   65  15  14 NW20      30.21F
WICHITA JABRA  SUNNY     64  15  15 NW18      30.21F
WICHITA MCCONL SUNNY     64  15  15 NW14      30.21S
WINFIELD       SUNNY     64  18  17 NW16      30.22F
$$

KSZ007>012-019>026-033>040-048>060-102>105-102100-
NORTHEAST KANSAS

CITY           SKY/WX    TMP DP  RH WIND       PRES   REMARKS
CONCORDIA      SUNNY     63  16  16 NW16G22   30.16F
EMPORIA        SUNNY     60  21  22 NW14G22   30.16F
LAWRENCE       SUNNY     58  22  24 W13       30.12F
MANHATTAN      SUNNY     63  20  19 NW7G18    30.15F
MARYSVILLE     SUNNY     61  21  21 NW16G23   30.13F
OLATHE IND     SUNNY     56  23  27 NW15      30.12F
OLATHE EXE     SUNNY     54  25  32 W8G17     30.11S
SALINA         SUNNY     65  17  15 NW18      30.19F
TOPEKA BILLARD SUNNY     59  22  24 NW10      30.12F
TOPEKA FORBES  SUNNY     59  22  24 NW13      30.13F
$$




USA.gov is the U.S. government's official web portal to all federal, state and local government web resources and services.